Location: Iowa City
(41.6610°N, 91.5300°W)
Time: 23:24:40
(UTC-05:00)

ISS - Visible Passes

Search period start: 28 March 2015 00:00
Search period end: 07 April 2015 00:00
Orbit: 396 x 406 km, 51.6° (Epoch: 28 March)

Date Brightness Start Highest point End Pass type
(mag) Time Alt. Az. Time Alt. Az. Time Alt. Az.
28 Mar -1.1 04:44:31 21° N 04:44:49 21° NNE 04:47:24 10° ENE visible
28 Mar -3.4 06:18:18 10° WNW 06:21:32 79° SW 06:24:45 10° SE visible
29 Mar -2.7 05:26:10 20° NW 05:28:09 55° NNE 05:31:19 10° ESE visible
30 Mar -1.3 04:35:23 29° NE 04:35:23 29° NE 04:37:38 10° E visible
30 Mar -2.6 06:08:06 10° WNW 06:11:03 32° SW 06:13:58 10° SSE visible
31 Mar -3.5 05:17:26 62° WSW 05:17:43 67° SW 05:20:54 10° SE visible
01 Apr -0.4 04:27:09 12° ESE 04:27:09 12° ESE 04:27:28 10° ESE visible
01 Apr -1.5 05:59:48 14° WSW 06:00:21 15° SW 06:02:11 10° SSW visible
02 Apr -0.6 05:09:49 10° SSE 05:09:49 10° SSE 05:09:50 10° SSE visible
03 Apr -2.8 20:49:22 10° SSW 20:52:23 36° SE 20:52:41 35° SE visible
04 Apr -2.6 21:31:56 10° WSW 21:35:09 51° NNW 21:35:09 51° NNW visible
05 Apr -3.4 20:38:15 10° SW 20:41:31 84° SE 20:44:36 11° NE visible
05 Apr -0.5 22:15:40 10° WNW 22:17:13 18° NW 22:17:13 18° NW visible
06 Apr -1.4 21:21:31 10° W 21:24:25 29° NNW 21:26:21 16° NNE visible
